Alturas, CA

2:50 AM PDT on July 24, 2017 (GMT -0700)
Alturas Municipal

Weather History for KAAT - February, 2013

Change the Weather History Date:

Saturday, February 23, 2013

  Actual Average Record
Temperature  
Mean Temperature 30 °F 36 °F  
Max Temperature 37 °F 48 °F 68 °F (1995)
Min Temperature 22 °F 23 °F 0 °F (1919)
Degree Days  
Heating Degree Days 35 29  
Month to date heating degree days 740 724  
Since 1 July heating degree days 4423 4722  
Cooling Degree Days 0 0  
Month to date cooling degree days 0 0  
Year to date cooling degree days 0 0  
Moisture  
Dew Point 22 °F    
Average Humidity 69    
Maximum Humidity 85    
Minimum Humidity 52    
Precipitation  
Precipitation 0.03 in 0.05 in 0.51 in (1972)
Month to date precipitation 0.22 1.17  
Year to date precipitation 0.70 2.82  
Sea Level Pressure  
Sea Level Pressure 30.15 in    
Wind  
Wind Speed 11 mph (NW)    
Max Wind Speed 18 mph    
Max Gust Speed 24 mph    
Visibility 9 miles    
Events Snow , Thunderstorm    
T = Trace of Precipitation, MM = Missing Value Source: NWS Daily Summary

Daily Weather History Graph

Daily Weather History Graph

Search for Another Location

Airport or City:

Trip Planner

Search our weather history database for the weather conditions in past years. The results will help you decide how hot, cold, wet, or windy it might be!

Date:

Astronomy

Feb. 23, 2013 Rise Set
Actual Time 6:45 AM PST 5:46 PM PST
Civil Twilight 6:17 AM PST 6:14 PM PST
Nautical Twilight 5:45 AM PST 6:46 PM PST
Astronomical Twilight 5:13 AM PST 7:18 PM PST
Moon 4:01 PM PST (2/23) 5:11 AM PST (2/23)
Length of Visible Light 11h 56m
Length of Day
11h 00m
Waxing Gibbous, 96% of the Moon is Illuminated
Feb 23
Waxing Gibbous
Feb 25
Full
Mar 4
Last Quarter
Mar 11
New
Mar 19
First Quarter

Hourly Weather History & Observations

Time (PST) Temp. Windchill Dew Point Humidity Pressure Visibility Wind Dir Wind Speed Gust Speed Precip Events Conditions
12:24 AM 35.6 °F 24.8 °F 33.8 °F 93% 29.93 in 8.0 mi West 19.6 mph - 0.01 in Snow , Thunderstorm Light Snow
12:33 AM 33.8 °F 19.4 °F 32.0 °F 93% 29.95 in 2.0 mi NW 33.4 mph 44.9 mph 0.02 in Snow , Thunderstorm Light Snow
12:37 AM 32.0 °F 19.5 °F 30.2 °F 93% 29.95 in 0.8 mi WNW 21.9 mph 44.9 mph 0.03 in Snow Light Snow
12:43 AM 33.8 °F 21.6 °F 30.2 °F 87% 29.95 in 1.0 mi WNW 23.0 mph 32.2 mph 0.03 in Snow Light Snow
12:48 AM 32.0 °F 19.5 °F 30.2 °F 93% 29.95 in 3.0 mi WNW 21.9 mph 32.2 mph 0.03 in Snow Light Snow
12:55 AM 32.0 °F 19.2 °F 28.9 °F 88% 29.97 in 7.0 mi NW 23.0 mph 28.8 mph 0.03 in Snow Light Snow
1:55 AM 30.0 °F 15.4 °F 23.0 °F 75% 30.00 in 10.0 mi NW 27.6 mph 38.0 mph 0.00 in   Clear
2:55 AM 28.9 °F 16.9 °F 21.0 °F 72% 30.02 in 10.0 mi NW 17.3 mph 28.8 mph N/A   Clear
3:55 AM 26.1 °F - 19.9 °F 78% 30.06 in 10.0 mi Calm Calm - N/A   Clear
4:55 AM 28.0 °F 21.7 °F 21.0 °F 75% 30.07 in 10.0 mi West 5.8 mph - N/A   Overcast
5:55 AM 27.0 °F 16.1 °F 19.9 °F 75% 30.12 in 10.0 mi NW 12.7 mph - 0.00 in   Overcast
6:55 AM 27.0 °F 20.5 °F 19.9 °F 75% 30.17 in 10.0 mi WNW 5.8 mph - N/A   Overcast
7:55 AM 27.0 °F 15.2 °F 19.0 °F 72% 30.19 in 10.0 mi NNW 15.0 mph - N/A   Overcast
8:20 AM 26.6 °F 16.2 °F 19.4 °F 74% 30.15 in 10.0 mi NW 11.5 mph - N/A   Overcast
8:55 AM 28.0 °F 18.1 °F 19.9 °F 72% 30.20 in 10.0 mi WNW 11.5 mph - N/A   Overcast
9:55 AM 30.0 °F 22.4 °F 21.0 °F 69% 30.20 in 10.0 mi NNW 8.1 mph - N/A   Overcast
10:04 AM 30.2 °F 19.3 °F 19.4 °F 64% 30.17 in 10.0 mi NW 15.0 mph - N/A   Overcast
10:18 AM 30.2 °F 21.3 °F 19.4 °F 64% 30.17 in 10.0 mi NW 10.4 mph - N/A   Overcast
10:55 AM 30.0 °F 20.5 °F 19.0 °F 64% 30.22 in 10.0 mi NW 11.5 mph - N/A   Overcast
11:55 AM 33.1 °F 23.9 °F 21.0 °F 61% 30.21 in 10.0 mi NW 12.7 mph 21.9 mph N/A   Mostly Cloudy
12:55 PM 35.1 °F 25.2 °F 19.9 °F 54% 30.20 in 10.0 mi NW 16.1 mph 21.9 mph N/A   Scattered Clouds
1:55 PM 34.0 °F 26.0 °F 19.9 °F 56% 30.21 in 10.0 mi NNW 10.4 mph - N/A   Overcast
2:55 PM 33.1 °F 22.6 °F 19.0 °F 56% 30.23 in 10.0 mi WNW 16.1 mph - N/A   Overcast
3:55 PM 34.0 °F 23.8 °F 19.9 °F 56% 30.24 in 10.0 mi NW 16.1 mph - 0.00 in   Mostly Cloudy
4:55 PM 32.0 °F 25.6 °F 19.0 °F 59% 30.25 in 10.0 mi NNW 6.9 mph - N/A   Clear
5:55 PM 30.9 °F 22.8 °F 19.0 °F 61% 30.27 in 10.0 mi WNW 9.2 mph - N/A   Clear
6:55 PM 28.9 °F 15.4 °F 18.0 °F 64% 30.29 in 10.0 mi NE 21.9 mph 59.8 mph N/A   Squalls
7:55 PM 27.0 °F - 18.0 °F 69% 30.30 in 10.0 mi Calm Calm - N/A   Clear
8:55 PM 27.0 °F 18.7 °F 18.0 °F 69% 30.32 in 10.0 mi North 8.1 mph - N/A   Clear
9:55 PM 26.1 °F 20.5 °F 18.0 °F 71% 30.33 in 10.0 mi NE 4.6 mph - N/A   Clear
10:55 PM 24.1 °F - 18.0 °F 77% 30.33 in 10.0 mi Calm Calm - N/A   Clear
11:55 PM 23.0 °F - 17.1 °F 78% 30.34 in 10.0 mi Calm Calm - N/A   Clear